• In Hungary
  • List of Countries
  • For 7 days
  • Water Temperature
  • Satellite Maps
  • Weather Map
  • News
  • Weather Widgets
  • user-avatar
    Login

    Hourly Weather Miami

    Today, 13 December, Wednesday

    Time Temperature Precipitation Wind Pressure Humidity
    00:00 +16°C° 0 mm 6 mps 761 mmHg 76%
    01:00 +16°C° 0 mm 7 mps 761 mmHg 75%
    02:00 +15°C° 0 mm 7 mps 761 mmHg 72%
    03:00 +14°C° 0 mm 7 mps 761 mmHg 68%
    04:00 +12°C° 0 mm 7 mps 761 mmHg 65%
    05:00 +13°C° 0 mm 6 mps 762 mmHg 63%
    06:00 +11°C° 0 mm 6 mps 763 mmHg 61%
    07:00 +10°C° 0 mm 6 mps 763 mmHg 59%
    08:00 +11°C° 0 mm 6 mps 764 mmHg 53%
    09:00 +13°C° 0 mm 5 mps 764 mmHg 47%
    10:00 +15°C° 0 mm 5 mps 765 mmHg 41%
    11:00 +16°C° 0 mm 5 mps 764 mmHg 35%
    12:00 +18°C° 0 mm 4 mps 764 mmHg 29%
    13:00 +20°C° 0 mm 4 mps 764 mmHg 23%
    14:00 +20°C° 0 mm 4 mps 764 mmHg 23%
    15:00 +20°C° 0 mm 3 mps 763 mmHg 23%
    16:00 +20°C° 0 mm 3 mps 763 mmHg 22%
    17:00 +19°C° 0 mm 3 mps 763 mmHg 26%
    18:00 +17°C° 0 mm 3 mps 763 mmHg 30%
    19:00 +14°C° 0 mm 3 mps 764 mmHg 35%
    20:00 +15°C° 0 mm 2 mps 764 mmHg 36%
    21:00 +14°C° 0 mm 2 mps 764 mmHg 38%
    22:00 +14°C° 0 mm 2 mps 764 mmHg 40%
    23:00 +13°C° 0 mm 2 mps 764 mmHg 40%

    Tomorrow, 14 December, Thursday

    Time Temperature Precipitation Wind Pressure Humidity
    00:00 +13°C° 0 mm 2 mps 764 mmHg 40%
    01:00 +13°C° 0 mm 2 mps 763 mmHg 40%
    02:00 +12°C° 0 mm 2 mps 763 mmHg 40%
    03:00 +12°C° 0 mm 2 mps 763 mmHg 40%
    04:00 +11°C° 0 mm 3 mps 763 mmHg 40%
    05:00 +11°C° 0 mm 3 mps 763 mmHg 42%
    06:00 +10°C° 0 mm 3 mps 763 mmHg 43%
    07:00 +10°C° 0 mm 3 mps 764 mmHg 45%
    08:00 +13°C° 0 mm 3 mps 764 mmHg 44%
    09:00 +16°C° 0 mm 3 mps 765 mmHg 42%
    10:00 +18°C° 0 mm 3 mps 765 mmHg 41%
    11:00 +19°C° 0 mm 2 mps 765 mmHg 38%
    12:00 +22°C° 0 mm 1 mps 764 mmHg 36%
    13:00 +23°C° 0 mm 1 mps 764 mmHg 33%
    14:00 +23°C° 0 mm 1 mps 763 mmHg 33%
    15:00 +23°C° 0 mm 1 mps 763 mmHg 33%
    16:00 +23°C° 0 mm 1 mps 763 mmHg 33%
    17:00 +22°C° 0 mm 1 mps 763 mmHg 38%
    18:00 +21°C° 0 mm 1 mps 763 mmHg 42%
    19:00 +19°C° 0 mm 1 mps 764 mmHg 47%
    20:00 +19°C° 0 mm 1 mps 764 mmHg 51%
    21:00 +18°C° 0 mm 1 mps 764 mmHg 56%
    22:00 +18°C° 0 mm 1 mps 764 mmHg 60%
    23:00 +16°C° 0 mm 1 mps 764 mmHg 63%

    Day after tomorrow, 15 December, Friday

    Time Temperature Precipitation Wind Pressure Humidity
    00:00 +16°C° 0 mm 1 mps 764 mmHg 66%
    01:00 +16°C° 0 mm 1 mps 764 mmHg 68%
    02:00 +16°C° 0 mm 1 mps 764 mmHg 68%
    03:00 +16°C° 0 mm 1 mps 763 mmHg 68%
    04:00 +15°C° 0 mm 1 mps 763 mmHg 68%
    05:00 +15°C° 0 mm 1 mps 763 mmHg 68%
    06:00 +15°C° 0 mm 2 mps 764 mmHg 67%
    07:00 +15°C° 0 mm 2 mps 764 mmHg 67%
    08:00 +18°C° 0 mm 2 mps 764 mmHg 62%
    09:00 +20°C° 0 mm 2 mps 764 mmHg 57%
    10:00 +23°C° 0 mm 2 mps 765 mmHg 53%
    11:00 +24°C° 0 mm 2 mps 764 mmHg 51%
    12:00 +25°C° 0 mm 2 mps 764 mmHg 50%
    13:00 +26°C° 0 mm 2 mps 764 mmHg 48%
    14:00 +26°C° 0 mm 2 mps 763 mmHg 48%
    15:00 +26°C° 0 mm 2 mps 763 mmHg 48%
    16:00 +26°C° 0 mm 2 mps 763 mmHg 48%
    17:00 +25°C° 0 mm 2 mps 763 mmHg 54%
    18:00 +24°C° 0 mm 2 mps 763 mmHg 60%
    19:00 +23°C° 0 mm 2 mps 764 mmHg 65%
    20:00 +21°C° 0 mm 2 mps 764 mmHg 69%
    21:00 +21°C° 0 mm 1 mps 765 mmHg 72%
    22:00 +20°C° 0 mm 1 mps 765 mmHg 75%
    23:00 +20°C° 0 mm 1 mps 765 mmHg 74%

    16 December, Saturday

    Time Temperature Precipitation Wind Pressure Humidity
    00:00 +20°C° 0 mm 1 mps 765 mmHg 72%
    01:00 +20°C° 0 mm 1 mps 764 mmHg 71%
    02:00 +20°C° 0 mm 1 mps 764 mmHg 70%
    03:00 +18°C° 0 mm 2 mps 764 mmHg 69%
    04:00 +18°C° 0 mm 2 mps 764 mmHg 68%
    05:00 +18°C° 0 mm 2 mps 765 mmHg 70%
    06:00 +18°C° 0 mm 2 mps 765 mmHg 71%
    07:00 +18°C° 0 mm 2 mps 765 mmHg 73%
    08:00 +20°C° 0 mm 3 mps 766 mmHg 68%
    09:00 +22°C° 0 mm 3 mps 766 mmHg 62%
    10:00 +25°C° 0 mm 3 mps 766 mmHg 57%
    11:00 +26°C° 0 mm 3 mps 766 mmHg 54%
    12:00 +27°C° 0 mm 3 mps 765 mmHg 51%
    13:00 +28°C° 0 mm 4 mps 765 mmHg 47%
    14:00 +28°C° 0 mm 4 mps 765 mmHg 48%
    15:00 +27°C° 0 mm 4 mps 765 mmHg 50%
    16:00 +27°C° 0 mm 5 mps 764 mmHg 51%
    17:00 +26°C° 0 mm 5 mps 765 mmHg 55%
    18:00 +25°C° 0 mm 5 mps 765 mmHg 59%
    19:00 +23°C° 0 mm 5 mps 766 mmHg 63%
    20:00 +23°C° 0 mm 5 mps 766 mmHg 64%
    21:00 +22°C° 0 mm 5 mps 766 mmHg 65%
    22:00 +22°C° 0 mm 5 mps 766 mmHg 67%
    23:00 +22°C° 0 mm 5 mps 766 mmHg 69%

    17 December, Sunday

    Time Temperature Precipitation Wind Pressure Humidity
    00:00 +22°C° 0 mm 6 mps 766 mmHg 71%
    01:00 +22°C° 0 mm 6 mps 766 mmHg 73%
    02:00 +22°C° 0 mm 6 mps 766 mmHg 75%
    03:00 +22°C° 0 mm 5 mps 766 mmHg 77%
    04:00 +22°C° 0 mm 5 mps 765 mmHg 79%
    05:00 +22°C° 0 mm 5 mps 766 mmHg 80%
    06:00 +22°C° 0 mm 6 mps 766 mmHg 81%
    07:00 +22°C° 0 mm 6 mps 766 mmHg 81%
    08:00 +23°C° 0 mm 6 mps 766 mmHg 75%
    09:00 +26°C° 0 mm 6 mps 767 mmHg 69%
    10:00 +27°C° 0 mm 7 mps 767 mmHg 63%
    11:00 +28°C° 0 mm 7 mps 766 mmHg 61%
    12:00 +28°C° 0 mm 6 mps 766 mmHg 60%
    13:00 +29°C° 0 mm 6 mps 766 mmHg 58%
    14:00 +28°C° 0 mm 6 mps 765 mmHg 59%
    15:00 +28°C° 0 mm 6 mps 765 mmHg 60%
    16:00 +28°C° 0 mm 6 mps 765 mmHg 61%
    17:00 +27°C° 0 mm 5 mps 765 mmHg 66%
    18:00 +26°C° 0 mm 5 mps 765 mmHg 71%
    19:00 +25°C° 0 mm 5 mps 766 mmHg 76%
    20:00 +24°C° 0 mm 6 mps 766 mmHg 77%
    21:00 +23°C° 0 mm 6 mps 766 mmHg 78%
    22:00 +23°C° 0 mm 6 mps 766 mmHg 80%
    23:00 +23°C° 0 mm 5 mps 766 mmHg 81%

    18 December, Monday

    Time Temperature Precipitation Wind Pressure Humidity
    00:00 +23°C° 0 mm 5 mps 765 mmHg 83%
    01:00 +23°C° 0 mm 5 mps 765 mmHg 85%
    02:00 +23°C° 0 mm 5 mps 765 mmHg 86%
    03:00 +22°C° 0 mm 4 mps 765 mmHg 87%
    04:00 +22°C° 0 mm 4 mps 765 mmHg 88%
    05:00 +22°C° 0 mm 4 mps 765 mmHg 88%
    06:00 +22°C° 0 mm 4 mps 765 mmHg 89%
    07:00 +22°C° 0 mm 4 mps 765 mmHg 89%
    08:00 +25°C° 0 mm 4 mps 766 mmHg 81%
    09:00 +26°C° 0 mm 4 mps 766 mmHg 74%
    10:00 +28°C° 0 mm 4 mps 766 mmHg 66%
    11:00 +28°C° 0 mm 4 mps 766 mmHg 63%
    12:00 +29°C° 0 mm 4 mps 765 mmHg 59%
    13:00 +30°C° 0 mm 4 mps 765 mmHg 56%
    14:00 +29°C° 0 mm 4 mps 765 mmHg 58%
    15:00 +29°C° 0 mm 4 mps 764 mmHg 59%
    16:00 +29°C° 0 mm 4 mps 764 mmHg 61%
    17:00 +27°C° 0 mm 4 mps 764 mmHg 66%
    18:00 +26°C° 0 mm 4 mps 765 mmHg 72%
    19:00 +25°C° 0 mm 3 mps 765 mmHg 77%
    20:00 +25°C° 0 mm 3 mps 765 mmHg 80%
    21:00 +24°C° 0 mm 3 mps 765 mmHg 82%
    22:00 +24°C° 0 mm 3 mps 765 mmHg 85%
    23:00 +24°C° 0 mm 3 mps 765 mmHg 86%
    Show more